Location: Mahannah Oil Field
(37.4664°N, 96.6003°W)
Time: 01:34:26
(UTC+00:00)

Tiros 1 despin weight - Pass Details

Date: 30 January 2021
Orbit: 593 x 642 km, 48.2° (Epoch: 25 February)

Event Time Altitude Azimuth Distance (km) Brightness Sun altitude
Rises 18:12:39 0° 241° (WSW) 2,918 ? 34.7°
Reaches altitude 10° 18:14:59 10° 243° (WSW) 2,007 ? 34.8°
Maximum altitude 18:19:36 71° 328° (NNW) 664 ? 34.9°
Drops below altitude 10° 18:24:10 10° 53° (NE) 1,985 ? 35.0°
Sets 18:26:28 0° 55° (NE) 2,884 ? 35.0°
